SCP
0 0 0 0 0 0 0 0 0 0 0 0 0 0 0 0 0 0 0 0 0 0 0 0 0 0 0 0 0 0 0 0 0 0 0 0 0 0 0 0 0 0 0 0 0 0 0 0 0 1 1 0 0 0
0 0 0 0 0 0 0 0 0 0 0 0 0 0 0 0 0 0 0 0 0 0 0 0 0 0 0 0 0 0 0 0 0 0 0 0 0 0 0 0 0 0 0 -0 0 0 0 0 0 0 0 0 0 0
0 0 0 0 0 -0 -0 0 0 0 0 0 0 0 0 0 0 0 0 0 0 0 0 0 0 0 -0 -0 0 0 0 0 0 0 0 0 0 0 0 0 0 0 0 0 0 0 0 0 0 0 0 0 0 0
0 0 0 0 0 0 0 0 0 0 0 0 0 0 0 0 0 0 0 0 0 0 0 0 0 0 0 0 0 0 0 0 0 0 0 0 0 0 0 0 0 0 0 0 0 0 0 0 0 0 0 0 0 0
0 0 0 0 -0 0 -0 -0 -0 0 0 0 0 0 0 0 0 0 0 0 0 0 0 0 0 0 0 0 0 0 0 0 0 0 0 0 0 0 0 0 0 0 0 0 0 0 0 0 0 0 0 0 0 0
0 0 0 -0 -0 -0 0 0 -0 0 0 0 0 0 0 0 0 0 0 0 0 0 0 0 0 0 0 0 0 0 0 0 0 0 0 0 0 0 0 0 0 0 0 0 0 0 0 0 0 0 0 0 0 0
0 0 -0 -0 -0 -0 0 0 -0 0 0 0 0 0 0 0 0 0 0 0 0 0 0 0 0 0 0 0 0 0 0 0 0 0 0 0 0 0 0 0 0 0 0 0 0 0 0 0 0 0 0 0 0 0
0 0 -0 0 0 -0 0 -0 -0 0 0 0 0 0 0 0 0 0 0 0 0 0 0 0 0 0 0 0 0 0 0 0 0 0 0 0 0 0 0 0 0 0 0 0 0 0 0 0 0 0 0 0 0 0
0 0 -0 0 -0 0 0 -0 0 -0 0 0 0 0 0 0 0 0 0 0 0 0 0 0 0 0 0 0 0 0 0 0 0 0 0 0 0 0 0 0 0 0 0 0 0 0 0 0 0 0 0 0 0 0
0 -0 -0 -0 -0 0 0 -0 -0 0 0 0 0 0 0 0 0 0 0 0 0 0 0 0 0 0 0 0 0 0 0 0 0 0 0 0 0 0 0 0 0 0 0 0 0 0 0 0 0 0 0 0 0 0
-0 0 -0 -0 -0 0 0 -0 0 0 0 0 0 0 0 0 0 0 0 0 0 0 0 0 0 0 0 0 0 0 0 0 0 0 0 0 0 0 0 0 0 0 0 0 0 0 0 0 0 0 0 0 0 0
0 0 0 0 -0 0 -0 0 0 0 0 0 0 0 0 0 0 0 0 0 0 0 0 0 0 0 0 0 0 0 0 0 0 0 0 0 0 0 0 0 0 0 0 0 0 0 0 0 0 0 0 0 0 0
0 0 0 0 0 0 0 0 0 0 0 0 0 0 0 0 0 0 0 0 0 0 0 0 0 0 0 0 0 0 0 0 0 0 0 0 0 0 0 0 0 0 0 0 0 0 0 0 0 0 0 0 0 0
0 0 0 0 0 0 0 0 0 0 0 0 0 0 0 0 0 0 0 0 0 0 0 0 0 0 0 0 0 0 0 0 0 0 0 0 0 0 0 0 0 0 -0 0 0 0 0 0 0 0 0 0 0 0
0 0 0 0 0 0 0 0 0 0 0 0 0 0 0 0 0 0 0 0 0 0 0 0 0 0 0 0 0 0 0 0 0 0 0 0 0 0 0 -0 -0 -0 0 0 0 0 0 0 0 0 0 -0 0 0
0 0 0 0 0 0 0 0 0 0 0 0 0 0 0 0 0 0 0 0 0 0 0 0 0 0 0 0 0 0 0 0 0 0 0 0 0 -0 -0 -0 -0 -0 0 0 0 0 0 0 0 0 -0 -0 -0 0
0 0 0 0 0 0 0 0 0 0 0 0 0 0 0 0 0 0 0 0 0 0 0 0 0 0 0 0 0 0 0 0 0 0 0 -0 -0 0 -0 0 0 0 0 0 0 0 0 0 0 0 0 0 0 0
0 0 0 0 0 0 0 0 0 0 0 0 0 0 0 0 0 0 0 0 0 0 0 0 0 0 0 0 0 0 0 0 -0 -0 0 0 0 0 0 0 0 0 0 0 0 0 0 0 0 0 -0 -0 0 0
0 0 0 0 0 0 0 0 0 0 0 0 0 0 0 0 0 0 0 0 0 0 0 0 0 0 0 0 0 0 0 0 0 0 0 0 0 0 0 0 0 0 0 -0 0 0 0 0 0 0 0 0 0 0
0 0 0 0 0 0 0 0 0 0 0 0 0 0 0 0 0 0 0 0 0 0 0 0 0 0 0 -0 -0 -0 -0 -0 0 0 0 0 0 0 0 0 0 0 -0 -0 0 0 -0 0 -0 0 0 0 0 0
0 0 0 0 0 0 0 0 0 0 0 0 0 0 0 0 0 0 0 0 0 0 0 0 0 0 -0 -0 -0 -0 0 0 0 0 0 0 0 0 0 0 0 0 -0 0 0 0 0 0 0 0 0 0 0 0
0 0 0 0 0 0 0 0 0 0 0 0 0 0 0 0 0 0 0 0 0 0 -0 -0 -0 -0 0 0 -0 0 0 0 0 0 0 0 0 0 0 0 0 0 0 0 0 0 0 0 0 0 0 0 0 0
0 -0 0 0 0 0 0 0 0 0 0 0 0 0 0 0 0 0 0 0 0 0 -0 -0 0 0 0 0 0 0 -0 0 0 0 0 0 0 0 0 0 0 0 0 0 0 0 0 0 0 0 0 0 0 0
0 0 0 0 0 0 0 0 0 0 0 0 0 0 0 0 0 0 0 0 0 0 0 0 -0 -0 0 0 0 0 0 0 0 0 0 0 0 0 0 0 0 0 0 0 0 0 0 0 0 0 0 0 0 0
0 0 0 0 0 0 0 0 0 0 0 0 0 0 0 0 0 0 0 0 0 0 0 0 0 0 0 0 0 -0 -0 -0 -0 -0 0 0 0 0 0 0 0 0 0 0 0 0 0 0 0 0 0 0 0 0
0 0 0 0 0 0 0 -0 -0 0 0 0 0 0 0 0 0 0 0 0 0 0 0 0 0 0 0 -0 -0 -0 -0 0 0 0 0 0 0 0 0 0 0 0 0 0 0 0 0 0 0 0 0 0 0 0
0 0 0 0 0 0 0 0 0 0 0 0 0 0 0 0 0 0 0 0 0 0 0 0 0 0 0 -0 0 0 0 0 0 0 0 0 0 0 0 0 0 -0 -0 -0 -0 0 0 0 0 0 0 0 0 0
0 0 0 0 0 0 0 0 0 0 0 0 0 0 -0 -0 0 0 0 0 0 0 0 0 0 0 0 0 0 0 0 0 0 0 0 0 0 0 0 0 0 0 0 0 0 0 0 0 0 0 0 0 0 0
0 0 0 0 0 0 0 0 0 0 0 0 0 0 -0 0 0 0 0 0 0 0 0 0 0 0 0 0 0 0 -0 -0 -0 -0 0 0 0 0 0 0 -0 -0 0 0 0 0 0 0 0 0 0 0 0 0
0 0 0 0 0 0 0 0 0 0 0 0 0 0 0 0 0 0 0 0 0 0 0 0 0 0 0 0 0 0 0 0 0 0 0 0 0 0 0 0 -0 0 0 0 0 0 0 0 0 0 0 0 0 0
0 0 0 0 0 0 0 0 0 0 0 0 0 0 0 0 0 0 0 0 0 0 0 0 0 0 0 0 0 0 0 0 0 0 0 0 0 0 0 0 0 0 0 0 0 0 0 0 0 0 0 0 0 0
0 0 0 0 0 0 0 0 0 0 0 0 0 0 0 0 0 0 0 0 0 0 0 0 0 0 0 0 0 0 0 0 0 0 0 0 0 0 0 0 0 0 0 0 0 0 0 0 0 0 0 0 0 0
-0 -0 -0 0 0 0 0 0 0 0 0 0 0 0 0 0 0 0 0 0 0 0 0 0 0 0 0 0 0 0 0 0 0 0 0 0 0 0 0 0 0 0 0 0 0 0 0 0 0 0 0 0 0 0
Wind_Speed_500mb
51 49 48 47 45 43 41 41 41 38 34 31 31 29 26 28 26 22 11 5 9 14 53 57 28 12 19 12 6 21 10 16 11 12 1 5 5 11 6 6 9 8 6 6 7 9 8 43 20 14 9 30 44 40
56 54 51 46 43 41 38 33 32 33 27 31 27 26 26 24 26 21 22 14 14 23 38 46 46 49 45 31 27 14 1 3 2 6 7 5 7 8 8 7 8 5 10 8 8 6 12 34 27 36 38 47 57 53
49 43 44 46 41 37 35 35 31 30 25 27 25 23 20 21 24 21 24 8 14 22 47 27 16 5 24 21 16 8 2 11 9 14 3 7 6 3 4 2 10 10 5 8 12 9 11 16 33 41 53 59 57 56
48 45 43 42 43 35 30 29 26 24 22 25 27 24 19 19 22 21 24 9 12 14 9 15 9 2 13 20 24 25 25 7 22 20 5 3 4 9 5 7 5 8 3 12 5 4 13 18 14 41 33 29 18 19
44 40 34 40 35 34 29 22 26 22 20 19 16 16 15 16 19 20 22 14 16 7 9 27 34 21 25 21 19 17 9 8 9 4 0 5 5 8 6 7 6 5 12 10 9 13 13 1 25 31 42 32 22 18
37 37 29 32 27 19 19 18 21 19 17 15 15 15 14 16 14 8 5 18 11 11 9 7 11 18 13 6 10 18 16 12 12 7 6 6 4 8 6 2 12 5 13 32 18 41 24 28 32 29 35 28 18 20
31 27 22 19 16 22 19 15 16 16 16 16 17 15 13 15 13 14 7 12 17 14 7 9 10 6 12 6 6 4 15 6 6 3 2 3 5 11 5 5 7 23 18 35 47 40 41 26 25 28 27 31 25 22
29 25 21 16 18 17 14 12 15 15 16 13 13 12 13 12 11 18 1 3 11 8 9 6 8 6 15 5 6 6 4 4 5 2 2 5 6 9 6 8 47 56 65 59 56 53 48 41 36 35 29 26 28 31
12 18 20 17 13 9 11 9 12 16 10 10 9 9 1 7 3 1 7 9 9 9 6 6 4 6 12 9 9 10 6 1 3 2 3 6 9 14 7 30 56 55 51 45 42 37 32 36 33 31 30 32 32 32
9 7 12 11 9 8 6 7 9 13 9 6 2 2 2 1 6 9 7 5 7 9 9 7 10 6 11 10 3 3 3 4 3 7 15 9 6 38 53 57 56 53 49 36 36 37 24 21 22 22 20 21 26 34
2 7 11 12 12 6 10 7 12 13 6 4 4 5 2 5 5 5 5 8 8 5 11 12 13 5 16 6 3 5 3 1 4 5 8 6 6 16 38 43 40 36 32 27 19 11 7 10 18 26 31 33 29 25
6 11 7 11 8 13 10 12 14 14 5 4 6 5 3 3 5 2 5 7 7 7 7 6 7 1 8 8 6 9 3 5 3 6 7 6 3 24 32 32 30 26 24 19 14 12 12 11 12 14 17 22 27 26
21 24 17 12 17 15 16 16 24 15 2 4 5 5 5 3 8 4 4 6 4 7 2 10 4 6 10 16 7 7 9 4 7 8 7 5 11 22 29 23 24 24 24 18 18 16 21 15 17 26 33 31 24 22
29 25 25 20 14 17 14 24 14 9 4 4 7 10 3 5 6 3 3 5 12 9 31 23 13 7 9 9 5 7 5 4 8 9 5 2 18 24 22 22 25 24 23 23 27 26 22 24 29 30 28 24 19 22
28 27 22 20 17 18 25 14 4 5 5 4 5 8 3 17 15 12 5 6 29 31 19 12 11 9 7 6 4 4 5 9 9 6 5 8 20 21 17 18 26 25 25 26 30 35 31 31 30 29 23 19 21 19
27 26 26 22 23 31 20 14 6 15 10 8 6 7 22 15 22 29 27 25 32 20 14 12 6 7 6 2 8 8 6 9 3 1 13 16 17 12 7 6 15 19 21 23 28 30 30 31 33 31 27 21 20 18
28 32 23 23 26 17 11 9 9 8 9 8 5 12 5 13 14 22 27 32 24 20 6 6 7 2 3 4 8 7 5 4 4 7 11 14 13 10 12 12 18 22 23 23 28 28 27 34 33 27 25 21 19 14
35 27 24 23 15 7 14 12 9 6 3 4 6 19 9 10 21 33 31 32 18 10 9 3 6 9 7 7 5 4 13 14 11 17 13 24 11 9 9 12 15 19 22 20 20 24 25 33 30 25 22 20 21 22
26 25 21 14 15 9 8 9 7 9 8 16 17 16 15 12 18 18 19 20 22 17 6 8 9 6 4 8 7 10 11 12 19 25 10 12 24 12 10 17 21 20 21 19 24 22 24 32 40 25 21 21 24 20
19 15 19 22 17 9 8 7 7 8 11 18 20 26 12 9 16 18 13 19 19 9 10 6 4 8 8 7 8 7 11 18 22 20 10 7 14 15 14 22 23 24 17 20 26 26 26 23 24 15 17 16 21 13
11 13 16 20 11 14 7 10 8 9 12 11 26 18 11 10 13 15 15 15 6 4 4 9 17 13 5 6 10 12 13 18 15 14 18 15 10 22 25 19 20 19 25 29 29 26 23 17 17 21 15 17 23 21
16 18 17 13 7 4 1 6 8 12 10 15 15 18 8 9 12 14 22 7 7 7 4 3 12 20 25 23 21 15 18 13 10 6 6 9 28 24 23 27 28 33 30 35 36 18 10 17 22 16 25 25 24 28
16 14 9 6 4 6 4 6 4 8 5 13 13 5 6 8 14 21 4 6 9 12 19 23 20 16 16 11 5 11 11 1 7 7 10 13 14 19 30 34 25 29 34 27 19 11 16 15 18 23 25 28 30 33
14 5 4 4 2 3 6 5 4 5 6 6 5 6 6 8 15 8 4 9 12 4 4 8 12 10 11 4 4 12 17 18 20 23 22 22 22 22 31 19 19 20 22 20 15 14 16 15 15 16 19 21 23 25
4 5 4 5 4 2 3 2 2 2 1 2 3 5 5 4 2 2 2 6 16 18 14 5 3 12 24 24 18 19 14 15 15 19 18 13 11 8 9 10 14 21 25 27 28 30 32 33 33 33 33 34 34 33
5 13 20 18 15 9 11 6 6 7 5 6 11 5 10 4 4 4 5 10 25 19 15 17 23 28 30 13 13 21 25 13 7 12 21 21 14 11 13 16 23 27 35 37 38 38 32 32 34 36 38 40 42 43
8 10 19 19 10 14 14 14 13 9 10 10 8 12 7 4 2 7 6 15 19 11 13 24 20 10 11 25 29 27 15 15 18 14 13 20 20 23 20 19 25 29 39 47 52 28 27 32 34 35 35 34 33 29
18 6 6 21 19 21 4 6 9 7 3 6 13 3 6 5 5 8 14 16 18 5 3 25 35 32 29 29 29 25 23 23 20 20 19 14 14 22 27 33 39 48 55 58 24 26 30 34 35 31 32 32 37 41
8 29 23 21 12 7 7 5 7 13 25 19 9 5 10 19 20 17 30 35 30 30 26 25 26 22 25 25 24 28 34 39 42 36 28 22 26 31 37 43 54 56 35 24 22 31 36 28 34 37 39 36 30 25
11 30 15 14 9 7 19 12 30 29 27 32 35 34 34 35 32 24 23 23 20 19 17 17 17 22 24 27 30 33 36 33 32 31 26 25 27 34 43 48 44 33 25 26 34 33 28 35 37 37 32 33 36 38
10 9 5 7 3 2 3 7 22 28 34 28 27 29 33 33 31 28 25 25 18 10 10 14 15 22 26 30 33 37 36 34 27 23 26 33 39 38 34 41 40 29 32 39 43 35 37 36 34 32 31 30 34 38
5 6 5 5 11 17 12 5 18 28 13 24 26 9 11 21 25 28 24 16 10 14 21 21 22 23 26 33 38 29 28 26 27 36 43 36 30 36 42 35 27 26 30 32 31 29 29 34 37 36 31 28 27 29
16 40 30 19 7 5 2 6 4 4 12 5 8 4 16 4 15 35 32 25 20 18 17 17 20 29 38 39 30 26 23 30 37 42 24 29 32 28 29 33 37 36 32 26 29 36 40 42 44 45 46 46 40 35
Wind_Direction_500mb
295 295 297 294 290 288 287 278 278 281 283 286 290 283 283 289 299 296 219 248 323 278 279 282 272 297 319 318 315 314 348 8 23 25 251 275 183 222 117 38 98 76 46 349 356 56 33 348 312 86 192 77 70 70
296 295 289 291 292 284 286 281 281 267 276 281 283 279 280 279 291 289 278 227 297 267 265 287 275 266 267 259 285 299 291 24 355 8 343 360 326 14 155 100 325 56 146 150 92 145 271 351 65 83 93 77 70 68
297 300 299 283 285 288 281 281 279 277 270 278 279 282 275 270 286 277 278 284 316 293 297 282 298 240 210 212 248 270 316 7 336 336 224 243 292 50 63 162 117 17 70 103 119 190 292 27 73 65 68 71 70 62
292 292 293 301 277 276 283 276 274 274 267 270 275 281 279 271 284 268 265 244 268 288 280 289 329 226 230 226 236 246 253 302 304 303 256 251 263 29 48 172 73 144 156 99 251 80 74 61 72 94 77 55 59 69
286 286 292 297 292 260 275 284 263 269 274 271 272 284 272 285 286 271 263 246 191 272 292 286 305 269 244 249 224 213 202 242 280 297 111 256 274 22 8 44 44 152 179 176 203 149 117 13 100 105 84 81 63 54
284 281 288 303 281 259 273 269 266 249 260 262 265 289 276 292 286 304 142 158 195 221 265 294 302 259 241 227 200 202 213 248 234 245 244 302 7 95 79 146 302 133 176 137 137 154 127 91 76 76 77 77 75 36
279 282 273 276 285 274 257 271 242 234 244 252 264 289 283 290 260 217 221 165 203 228 251 294 286 268 207 237 267 178 195 214 235 235 228 248 347 89 64 93 257 121 72 131 123 98 86 83 62 57 52 48 56 62
275 261 255 258 284 270 249 249 225 231 238 253 264 284 291 276 257 237 38 249 207 245 242 275 272 298 195 223 255 207 171 215 217 234 329 127 0 62 84 29 106 94 89 86 82 82 77 75 66 52 48 39 36 27
274 261 242 250 275 239 222 229 238 226 235 243 269 296 308 177 199 298 275 271 256 243 271 275 278 287 184 248 224 182 207 108 180 111 281 92 5 27 11 73 75 82 85 84 84 76 65 52 39 28 16 8 359 349
307 262 215 229 199 188 198 182 194 191 201 219 224 13 223 278 302 288 249 222 221 219 232 243 269 285 323 359 341 113 172 163 143 237 88 89 88 40 49 61 65 65 66 71 67 41 23 10 358 350 348 336 333 327
299 136 137 147 162 162 149 146 150 153 149 79 335 273 297 193 227 249 252 201 208 240 221 237 246 249 5 61 312 32 174 319 86 270 109 84 44 2 39 45 47 55 60 61 63 56 8 324 320 317 310 307 308 309
157 166 135 131 176 187 146 143 150 129 34 350 316 340 39 294 254 252 247 269 208 233 215 209 247 231 5 357 51 2 57 29 82 302 79 79 38 16 20 23 29 31 38 48 42 25 15 1 346 324 321 309 307 304
100 115 129 125 130 133 136 146 134 71 198 14 353 332 340 263 26 255 276 290 263 303 120 153 49 24 12 9 49 46 43 305 306 49 66 75 40 20 5 13 19 12 12 14 8 3 356 359 345 335 328 319 320 325
114 102 101 101 126 137 126 144 103 79 32 0 317 335 138 300 259 332 21 319 319 50 78 90 52 49 358 28 10 52 294 29 42 54 80 326 20 17 18 25 15 11 10 25 16 6 6 9 2 5 7 3 344 341
100 99 96 90 90 113 122 116 84 358 349 348 326 341 326 322 332 320 165 38 5 18 58 59 38 34 2 40 13 24 35 59 43 65 13 360 14 12 29 46 40 52 45 42 31 39 32 27 21 22 16 24 16 14
101 102 91 95 107 128 119 96 70 357 7 3 2 341 344 15 346 16 40 38 8 4 20 55 52 38 5 59 26 10 39 52 71 347 353 349 345 353 12 28 29 34 31 20 18 16 9 11 16 22 18 13 14 14
109 95 102 108 120 116 100 23 357 350 7 5 304 33 333 290 295 354 39 30 36 51 19 27 50 352 5 27 47 30 62 158 89 18 352 329 324 8 26 31 26 28 23 18 19 12 7 5 2 358 359 8 1 357
101 104 109 116 112 67 10 5 3 331 272 321 41 2 32 357 12 28 39 30 39 38 19 31 329 9 35 40 53 45 49 61 36 7 9 10 3 344 355 8 11 356 341 335 337 339 350 350 336 345 4 13 14 17
93 98 93 56 7 1 4 5 357 343 340 350 356 311 356 20 26 28 36 36 37 34 37 23 48 37 24 46 82 33 20 17 352 345 352 21 27 11 342 340 329 334 333 325 342 357 349 340 328 307 316 345 360 4
76 55 23 8 13 35 3 351 341 336 355 334 358 358 12 21 12 8 44 34 24 30 32 55 88 123 79 55 20 8 340 329 326 334 337 342 353 357 0 355 353 340 313 317 337 335 334 357 5 20 329 310 333 312
7 5 12 13 35 38 21 347 6 5 342 345 2 360 328 345 7 29 8 6 358 62 47 74 93 78 52 342 335 328 323 328 314 306 313 323 314 308 322 331 329 332 330 322 312 303 318 342 353 342 345 351 344 329
345 340 342 355 15 324 111 354 320 342 338 332 346 357 7 9 6 7 339 346 337 17 62 328 301 297 298 299 310 300 327 313 290 314 328 301 307 331 341 337 328 335 341 322 317 272 321 326 335 331 327 329 336 330
305 320 311 318 336 351 336 0 12 11 12 331 348 16 11 1 348 341 345 313 283 287 284 283 286 276 296 334 21 99 141 247 289 302 306 314 330 310 323 329 332 321 322 345 297 274 318 331 337 325 326 329 323 317
292 299 321 334 316 285 344 11 23 357 3 19 27 336 329 344 349 17 315 287 293 317 103 135 157 153 152 200 182 210 243 267 303 314 320 311 318 352 351 25 72 62 55 60 62 33 13 3 345 325 321 324 326 336
280 221 186 234 236 277 300 277 282 26 338 70 357 283 252 254 293 237 257 241 164 155 161 208 286 312 312 321 334 332 329 310 298 321 351 334 352 37 28 12 7 1 0 350 349 340 336 332 327 321 317 317 322 330
261 207 200 187 160 174 217 188 212 217 198 203 226 199 161 215 292 318 233 247 230 245 268 291 309 328 341 322 347 14 9 329 65 55 40 35 50 44 29 359 345 346 350 347 343 337 341 337 333 332 329 325 323 323
267 229 222 203 174 170 198 220 190 193 196 213 182 172 204 72 56 267 309 86 63 67 85 99 91 108 70 59 54 55 64 56 49 45 38 32 21 16 19 12 1 348 337 335 338 340 346 347 349 348 344 341 334 331
255 291 130 165 192 219 155 151 180 185 187 142 151 85 66 73 300 18 43 50 35 138 102 87 87 76 68 57 48 39 33 21 13 2 356 2 351 343 341 337 334 330 326 326 337 329 331 335 343 341 344 356 343 333
328 15 34 0 14 95 88 79 58 83 105 98 102 111 145 164 140 66 82 85 77 72 69 62 54 31 18 12 11 6 357 354 352 358 355 348 336 331 327 328 330 332 335 338 332 329 333 335 338 331 332 326 337 332
348 5 5 38 12 353 27 124 125 123 118 120 119 115 106 104 96 88 87 75 60 69 65 49 23 4 7 354 349 348 349 358 347 347 348 344 334 327 329 334 341 347 344 332 332 331 338 341 337 333 330 327 322 324
314 24 11 12 329 51 74 122 113 147 138 140 138 129 120 107 92 81 70 71 88 78 34 34 19 13 3 356 356 352 348 350 343 338 339 334 336 335 334 336 338 322 316 318 325 335 331 326 326 343 346 329 321 321
277 264 248 127 243 298 305 205 111 114 143 148 144 111 340 115 90 56 48 50 40 54 47 31 21 18 356 348 348 350 342 331 331 334 338 345 347 340 340 341 345 340 335 333 322 309 305 314 322 326 333 339 324 315
342 53 7 329 316 292 306 28 69 196 211 101 91 149 183 3 23 50 58 64 56 49 40 15 357 342 344 349 350 349 333 331 340 338 346 349 350 358 342 332 332 323 317 325 326 331 333 331 329 329 327 328 326 315
Wind_Speed_850mb
51 49 48 47 45 43 41 41 41 38 34 31 31 29 26 28 26 22 11 5 9 14 53 57 28 12 19 12 6 21 10 16 11 12 1 5 5 11 6 6 9 8 6 6 7 9 8 43 20 14 9 30 44 40
56 54 51 46 43 41 38 33 32 33 27 31 27 26 26 24 26 21 22 14 14 23 38 46 46 49 45 31 27 14 1 3 2 6 7 5 7 8 8 7 8 5 10 8 8 6 12 34 27 36 38 47 57 53
49 43 44 46 41 37 35 35 31 30 25 27 25 23 20 21 24 21 24 8 14 22 47 27 16 5 24 21 16 8 2 11 9 14 3 7 6 3 4 2 10 10 5 8 12 9 11 16 33 41 53 59 57 56
48 45 43 42 43 35 30 29 26 24 22 25 27 24 19 19 22 21 24 9 12 14 9 15 9 2 13 20 24 25 25 7 22 20 5 3 4 9 5 7 5 8 3 12 5 4 13 18 14 41 33 29 18 19
44 40 34 40 35 34 29 22 26 22 20 19 16 16 15 16 19 20 22 14 16 7 9 27 34 21 25 21 19 17 9 8 9 4 0 5 5 8 6 7 6 5 12 10 9 13 13 1 25 31 42 32 22 18
37 37 29 32 27 19 19 18 21 19 17 15 15 15 14 16 14 8 5 18 11 11 9 7 11 18 13 6 10 18 16 12 12 7 6 6 4 8 6 2 12 5 13 32 18 41 24 28 32 29 35 28 18 20
31 27 22 19 16 22 19 15 16 16 16 16 17 15 13 15 13 14 7 12 17 14 7 9 10 6 12 6 6 4 15 6 6 3 2 3 5 11 5 5 7 23 18 35 47 40 41 26 25 28 27 31 25 22
29 25 21 16 18 17 14 12 15 15 16 13 13 12 13 12 11 18 1 3 11 8 9 6 8 6 15 5 6 6 4 4 5 2 2 5 6 9 6 8 47 56 65 59 56 53 48 41 36 35 29 26 28 31
12 18 20 17 13 9 11 9 12 16 10 10 9 9 1 7 3 1 7 9 9 9 6 6 4 6 12 9 9 10 6 1 3 2 3 6 9 14 7 30 56 55 51 45 42 37 32 36 33 31 30 32 32 32
9 7 12 11 9 8 6 7 9 13 9 6 2 2 2 1 6 9 7 5 7 9 9 7 10 6 11 10 3 3 3 4 3 7 15 9 6 38 53 57 56 53 49 36 36 37 24 21 22 22 20 21 26 34
2 7 11 12 12 6 10 7 12 13 6 4 4 5 2 5 5 5 5 8 8 5 11 12 13 5 16 6 3 5 3 1 4 5 8 6 6 16 38 43 40 36 32 27 19 11 7 10 18 26 31 33 29 25
6 11 7 11 8 13 10 12 14 14 5 4 6 5 3 3 5 2 5 7 7 7 7 6 7 1 8 8 6 9 3 5 3 6 7 6 3 24 32 32 30 26 24 19 14 12 12 11 12 14 17 22 27 26
21 24 17 12 17 15 16 16 24 15 2 4 5 5 5 3 8 4 4 6 4 7 2 10 4 6 10 16 7 7 9 4 7 8 7 5 11 22 29 23 24 24 24 18 18 16 21 15 17 26 33 31 24 22
29 25 25 20 14 17 14 24 14 9 4 4 7 10 3 5 6 3 3 5 12 9 31 23 13 7 9 9 5 7 5 4 8 9 5 2 18 24 22 22 25 24 23 23 27 26 22 24 29 30 28 24 19 22
28 27 22 20 17 18 25 14 4 5 5 4 5 8 3 17 15 12 5 6 29 31 19 12 11 9 7 6 4 4 5 9 9 6 5 8 20 21 17 18 26 25 25 26 30 35 31 31 30 29 23 19 21 19
27 26 26 22 23 31 20 14 6 15 10 8 6 7 22 15 22 29 27 25 32 20 14 12 6 7 6 2 8 8 6 9 3 1 13 16 17 12 7 6 15 19 21 23 28 30 30 31 33 31 27 21 20 18
28 32 23 23 26 17 11 9 9 8 9 8 5 12 5 13 14 22 27 32 24 20 6 6 7 2 3 4 8 7 5 4 4 7 11 14 13 10 12 12 18 22 23 23 28 28 27 34 33 27 25 21 19 14
35 27 24 23 15 7 14 12 9 6 3 4 6 19 9 10 21 33 31 32 18 10 9 3 6 9 7 7 5 4 13 14 11 17 13 24 11 9 9 12 15 19 22 20 20 24 25 33 30 25 22 20 21 22
26 25 21 14 15 9 8 9 7 9 8 16 17 16 15 12 18 18 19 20 22 17 6 8 9 6 4 8 7 10 11 12 19 25 10 12 24 12 10 17 21 20 21 19 24 22 24 32 40 25 21 21 24 20
19 15 19 22 17 9 8 7 7 8 11 18 20 26 12 9 16 18 13 19 19 9 10 6 4 8 8 7 8 7 11 18 22 20 10 7 14 15 14 22 23 24 17 20 26 26 26 23 24 15 17 16 21 13
11 13 16 20 11 14 7 10 8 9 12 11 26 18 11 10 13 15 15 15 6 4 4 9 17 13 5 6 10 12 13 18 15 14 18 15 10 22 25 19 20 19 25 29 29 26 23 17 17 21 15 17 23 21
16 18 17 13 7 4 1 6 8 12 10 15 15 18 8 9 12 14 22 7 7 7 4 3 12 20 25 23 21 15 18 13 10 6 6 9 28 24 23 27 28 33 30 35 36 18 10 17 22 16 25 25 24 28
16 14 9 6 4 6 4 6 4 8 5 13 13 5 6 8 14 21 4 6 9 12 19 23 20 16 16 11 5 11 11 1 7 7 10 13 14 19 30 34 25 29 34 27 19 11 16 15 18 23 25 28 30 33
14 5 4 4 2 3 6 5 4 5 6 6 5 6 6 8 15 8 4 9 12 4 4 8 12 10 11 4 4 12 17 18 20 23 22 22 22 22 31 19 19 20 22 20 15 14 16 15 15 16 19 21 23 25
4 5 4 5 4 2 3 2 2 2 1 2 3 5 5 4 2 2 2 6 16 18 14 5 3 12 24 24 18 19 14 15 15 19 18 13 11 8 9 10 14 21 25 27 28 30 32 33 33 33 33 34 34 33
5 13 20 18 15 9 11 6 6 7 5 6 11 5 10 4 4 4 5 10 25 19 15 17 23 28 30 13 13 21 25 13 7 12 21 21 14 11 13 16 23 27 35 37 38 38 32 32 34 36 38 40 42 43
8 10 19 19 10 14 14 14 13 9 10 10 8 12 7 4 2 7 6 15 19 11 13 24 20 10 11 25 29 27 15 15 18 14 13 20 20 23 20 19 25 29 39 47 52 28 27 32 34 35 35 34 33 29
18 6 6 21 19 21 4 6 9 7 3 6 13 3 6 5 5 8 14 16 18 5 3 25 35 32 29 29 29 25 23 23 20 20 19 14 14 22 27 33 39 48 55 58 24 26 30 34 35 31 32 32 37 41
8 29 23 21 12 7 7 5 7 13 25 19 9 5 10 19 20 17 30 35 30 30 26 25 26 22 25 25 24 28 34 39 42 36 28 22 26 31 37 43 54 56 35 24 22 31 36 28 34 37 39 36 30 25
11 30 15 14 9 7 19 12 30 29 27 32 35 34 34 35 32 24 23 23 20 19 17 17 17 22 24 27 30 33 36 33 32 31 26 25 27 34 43 48 44 33 25 26 34 33 28 35 37 37 32 33 36 38
10 9 5 7 3 2 3 7 22 28 34 28 27 29 33 33 31 28 25 25 18 10 10 14 15 22 26 30 33 37 36 34 27 23 26 33 39 38 34 41 40 29 32 39 43 35 37 36 34 32 31 30 34 38
5 6 5 5 11 17 12 5 18 28 13 24 26 9 11 21 25 28 24 16 10 14 21 21 22 23 26 33 38 29 28 26 27 36 43 36 30 36 42 35 27 26 30 32 31 29 29 34 37 36 31 28 27 29
16 40 30 19 7 5 2 6 4 4 12 5 8 4 16 4 15 35 32 25 20 18 17 17 20 29 38 39 30 26 23 30 37 42 24 29 32 28 29 33 37 36 32 26 29 36 40 42 44 45 46 46 40 35
Wind_Direction_850mb
295 295 297 294 290 288 287 278 278 281 283 286 290 283 283 289 299 296 219 248 323 278 279 282 272 297 319 318 315 314 348 8 23 25 251 275 183 222 117 38 98 76 46 349 356 56 33 348 312 86 192 77 70 70
296 295 289 291 292 284 286 281 281 267 276 281 283 279 280 279 291 289 278 227 297 267 265 287 275 266 267 259 285 299 291 24 355 8 343 360 326 14 155 100 325 56 146 150 92 145 271 351 65 83 93 77 70 68
297 300 299 283 285 288 281 281 279 277 270 278 279 282 275 270 286 277 278 284 316 293 297 282 298 240 210 212 248 270 316 7 336 336 224 243 292 50 63 162 117 17 70 103 119 190 292 27 73 65 68 71 70 62
292 292 293 301 277 276 283 276 274 274 267 270 275 281 279 271 284 268 265 244 268 288 280 289 329 226 230 226 236 246 253 302 304 303 256 251 263 29 48 172 73 144 156 99 251 80 74 61 72 94 77 55 59 69
286 286 292 297 292 260 275 284 263 269 274 271 272 284 272 285 286 271 263 246 191 272 292 286 305 269 244 249 224 213 202 242 280 297 111 256 274 22 8 44 44 152 179 176 203 149 117 13 100 105 84 81 63 54
284 281 288 303 281 259 273 269 266 249 260 262 265 289 276 292 286 304 142 158 195 221 265 294 302 259 241 227 200 202 213 248 234 245 244 302 7 95 79 146 302 133 176 137 137 154 127 91 76 76 77 77 75 36
279 282 273 276 285 274 257 271 242 234 244 252 264 289 283 290 260 217 221 165 203 228 251 294 286 268 207 237 267 178 195 214 235 235 228 248 347 89 64 93 257 121 72 131 123 98 86 83 62 57 52 48 56 62
275 261 255 258 284 270 249 249 225 231 238 253 264 284 291 276 257 237 38 249 207 245 242 275 272 298 195 223 255 207 171 215 217 234 329 127 0 62 84 29 106 94 89 86 82 82 77 75 66 52 48 39 36 27
274 261 242 250 275 239 222 229 238 226 235 243 269 296 308 177 199 298 275 271 256 243 271 275 278 287 184 248 224 182 207 108 180 111 281 92 5 27 11 73 75 82 85 84 84 76 65 52 39 28 16 8 359 349
307 262 215 229 199 188 198 182 194 191 201 219 224 13 223 278 302 288 249 222 221 219 232 243 269 285 323 359 341 113 172 163 143 237 88 89 88 40 49 61 65 65 66 71 67 41 23 10 358 350 348 336 333 327
299 136 137 147 162 162 149 146 150 153 149 79 335 273 297 193 227 249 252 201 208 240 221 237 246 249 5 61 312 32 174 319 86 270 109 84 44 2 39 45 47 55 60 61 63 56 8 324 320 317 310 307 308 309
157 166 135 131 176 187 146 143 150 129 34 350 316 340 39 294 254 252 247 269 208 233 215 209 247 231 5 357 51 2 57 29 82 302 79 79 38 16 20 23 29 31 38 48 42 25 15 1 346 324 321 309 307 304
100 115 129 125 130 133 136 146 134 71 198 14 353 332 340 263 26 255 276 290 263 303 120 153 49 24 12 9 49 46 43 305 306 49 66 75 40 20 5 13 19 12 12 14 8 3 356 359 345 335 328 319 320 325
114 102 101 101 126 137 126 144 103 79 32 0 317 335 138 300 259 332 21 319 319 50 78 90 52 49 358 28 10 52 294 29 42 54 80 326 20 17 18 25 15 11 10 25 16 6 6 9 2 5 7 3 344 341
100 99 96 90 90 113 122 116 84 358 349 348 326 341 326 322 332 320 165 38 5 18 58 59 38 34 2 40 13 24 35 59 43 65 13 360 14 12 29 46 40 52 45 42 31 39 32 27 21 22 16 24 16 14
101 102 91 95 107 128 119 96 70 357 7 3 2 341 344 15 346 16 40 38 8 4 20 55 52 38 5 59 26 10 39 52 71 347 353 349 345 353 12 28 29 34 31 20 18 16 9 11 16 22 18 13 14 14
109 95 102 108 120 116 100 23 357 350 7 5 304 33 333 290 295 354 39 30 36 51 19 27 50 352 5 27 47 30 62 158 89 18 352 329 324 8 26 31 26 28 23 18 19 12 7 5 2 358 359 8 1 357
101 104 109 116 112 67 10 5 3 331 272 321 41 2 32 357 12 28 39 30 39 38 19 31 329 9 35 40 53 45 49 61 36 7 9 10 3 344 355 8 11 356 341 335 337 339 350 350 336 345 4 13 14 17
93 98 93 56 7 1 4 5 357 343 340 350 356 311 356 20 26 28 36 36 37 34 37 23 48 37 24 46 82 33 20 17 352 345 352 21 27 11 342 340 329 334 333 325 342 357 349 340 328 307 316 345 360 4
76 55 23 8 13 35 3 351 341 336 355 334 358 358 12 21 12 8 44 34 24 30 32 55 88 123 79 55 20 8 340 329 326 334 337 342 353 357 0 355 353 340 313 317 337 335 334 357 5 20 329 310 333 312
7 5 12 13 35 38 21 347 6 5 342 345 2 360 328 345 7 29 8 6 358 62 47 74 93 78 52 342 335 328 323 328 314 306 313 323 314 308 322 331 329 332 330 322 312 303 318 342 353 342 345 351 344 329
345 340 342 355 15 324 111 354 320 342 338 332 346 357 7 9 6 7 339 346 337 17 62 328 301 297 298 299 310 300 327 313 290 314 328 301 307 331 341 337 328 335 341 322 317 272 321 326 335 331 327 329 336 330
305 320 311 318 336 351 336 0 12 11 12 331 348 16 11 1 348 341 345 313 283 287 284 283 286 276 296 334 21 99 141 247 289 302 306 314 330 310 323 329 332 321 322 345 297 274 318 331 337 325 326 329 323 317
292 299 321 334 316 285 344 11 23 357 3 19 27 336 329 344 349 17 315 287 293 317 103 135 157 153 152 200 182 210 243 267 303 314 320 311 318 352 351 25 72 62 55 60 62 33 13 3 345 325 321 324 326 336
280 221 186 234 236 277 300 277 282 26 338 70 357 283 252 254 293 237 257 241 164 155 161 208 286 312 312 321 334 332 329 310 298 321 351 334 352 37 28 12 7 1 0 350 349 340 336 332 327 321 317 317 322 330
261 207 200 187 160 174 217 188 212 217 198 203 226 199 161 215 292 318 233 247 230 245 268 291 309 328 341 322 347 14 9 329 65 55 40 35 50 44 29 359 345 346 350 347 343 337 341 337 333 332 329 325 323 323
267 229 222 203 174 170 198 220 190 193 196 213 182 172 204 72 56 267 309 86 63 67 85 99 91 108 70 59 54 55 64 56 49 45 38 32 21 16 19 12 1 348 337 335 338 340 346 347 349 348 344 341 334 331
255 291 130 165 192 219 155 151 180 185 187 142 151 85 66 73 300 18 43 50 35 138 102 87 87 76 68 57 48 39 33 21 13 2 356 2 351 343 341 337 334 330 326 326 337 329 331 335 343 341 344 356 343 333
328 15 34 0 14 95 88 79 58 83 105 98 102 111 145 164 140 66 82 85 77 72 69 62 54 31 18 12 11 6 357 354 352 358 355 348 336 331 327 328 330 332 335 338 332 329 333 335 338 331 332 326 337 332
348 5 5 38 12 353 27 124 125 123 118 120 119 115 106 104 96 88 87 75 60 69 65 49 23 4 7 354 349 348 349 358 347 347 348 344 334 327 329 334 341 347 344 332 332 331 338 341 337 333 330 327 322 324
314 24 11 12 329 51 74 122 113 147 138 140 138 129 120 107 92 81 70 71 88 78 34 34 19 13 3 356 356 352 348 350 343 338 339 334 336 335 334 336 338 322 316 318 325 335 331 326 326 343 346 329 321 321
277 264 248 127 243 298 305 205 111 114 143 148 144 111 340 115 90 56 48 50 40 54 47 31 21 18 356 348 348 350 342 331 331 334 338 345 347 340 340 341 345 340 335 333 322 309 305 314 322 326 333 339 324 315
342 53 7 329 316 292 306 28 69 196 211 101 91 149 183 3 23 50 58 64 56 49 40 15 357 342 344 349 350 349 333 331 340 338 346 349 350 358 342 332 332 323 317 325 326 331 333 331 329 329 327 328 326 315